Regional Weather Roundup
Issued by NWS Goodland, KS

Home | Current Version | Previous Version | Graphics & Text | Print | Product List | Glossary On
Versions: 1 2 3 4 5 6 7 8 9 10 11 12 13 14 15 16 17 18 19 20 21 22 23 24 25 26 27 28 29 30 31 32 33 34 35 36 37 38 39 40 41 42 43 44 45 46 47 48 49 50
000
ASUS43 KGLD 050359
RWRGLD

GOODLAND FORECAST AREA HOURLY WEATHER ROUNDUP
NATIONAL WEATHER SERVICE GOODLAND KS
1000 PM MDT TUE AUG 04 2015

...OFFICIAL OBSERVATIONS...

CITY           SKY/WX    TMP DP  RH WIND       PRES   REMARKS
GOODLAND KS    CLEAR     66  63  90 S7        30.03R
HILL CITY KS   MOCLDY    68  66  93 CALM      29.97R
IMPERIAL NEB   PTCLDY    63  61  93 NE6       30.05R
MCCOOK NEB     PTCLDY    63  62  97 CALM      30.01R
AKRON CO       CLEAR     68  57  68 S8        30.10R
BURLINGTON CO  CLEAR     67  62  84 SE8       30.08R
LIMON CO       CLEAR     60  55  83 CALM      30.17R
$$

...UNOFFICIAL OBSERVATIONS...

CITY           SKY/WX    TMP DP  RH WIND       PRES   REMARKS
COLBY KS       CLEAR     68  66  94 SE6       30.02R
NORTON KS      MOCLDY    63  61  94 CALM      29.99
SHARON SPRINGS   N/A     69  64  84 CALM        N/A
KIT CARSON CO    N/A     69  61  76 MISG        N/A
YUMA CO          N/A     64  58  80 CALM        N/A
$$



USA.gov is the U.S. government's official web portal to all federal, state and local government web resources and services.